Temperature
21 21 21 21 19 18 19 20 21 21 22 22 22 21 19 19 19 18 18 18 18 18 18 18 18 18 18 18 18 18 18 18 18 18 18 18 18 18 18 18 18 18 18 18 18 18 18 18 18
22 21 21 21 18 18 20 21 21 22 22 22 22 21 20 19 18 18 18 18 18 18 18 18 18 18 18 18 18 18 18 18 18 18 18 17 17 17 17 18 18 18 18 18 18 17 17 17 17
22 21 21 18 19 19 20 21 21 23 23 23 21 20 20 19 18 18 18 18 18 18 18 18 18 18 18 18 18 18 18 18 18 18 17 17 17 17 17 17 17 17 17 17 17 17 17 17 17
22 22 21 18 20 20 21 21 22 22 22 22 21 19 19 19 19 19 18 18 18 18 18 18 18 18 18 18 18 18 18 18 18 18 17 17 17 17 17 17 17 17 17 17 17 17 17 17 17
22 21 19 19 20 21 21 22 22 22 22 21 20 19 18 19 19 19 18 18 18 18 18 18 18 18 18 18 18 17 17 17 17 17 17 17 17 17 17 17 17 17 17 17 17 17 17 17 17
22 19 18 19 20 21 21 22 22 21 21 21 20 18 18 19 19 18 18 18 18 18 18 18 18 18 18 18 17 17 17 17 17 17 17 17 17 17 17 17 17 17 17 17 17 17 17 17 17
21 18 19 19 20 21 22 23 22 21 21 21 20 18 18 18 18 18 18 18 18 18 18 18 18 18 17 17 17 17 17 17 17 17 17 17 17 17 17 17 17 17 17 17 17 17 17 16 16
22 18 19 19 20 21 22 22 22 22 21 21 21 18 18 18 18 18 18 18 18 18 18 18 18 17 17 17 17 17 17 17 17 17 17 17 17 16 16 16 16 16 16 16 16 16 16 16 16
22 18 19 20 20 21 22 22 22 22 21 21 21 20 20 19 18 18 18 18 18 18 17 17 17 17 17 17 17 17 17 17 17 17 16 17 17 16 16 16 16 16 16 16 16 16 16 16 16
21 18 20 21 20 21 22 22 22 21 20 20 20 20 19 19 18 18 18 18 18 18 17 17 17 17 17 17 17 17 17 17 17 17 16 16 16 16 16 16 16 16 16 16 16 16 16 16 16
21 19 20 21 22 22 21 22 22 21 19 19 19 19 19 19 19 18 18 18 18 18 18 17 17 17 17 17 17 17 17 16 16 16 16 16 16 16 16 16 16 16 16 16 16 16 16 16 16
21 21 22 22 22 22 21 21 21 21 21 21 21 20 19 19 19 19 19 18 18 18 18 17 17 17 17 17 17 17 16 16 16 16 16 16 16 16 16 16 16 16 16 16 16 16 16 16 15
21 21 22 22 22 22 22 21 21 20 21 21 20 20 19 19 19 19 19 18 18 18 18 17 17 17 17 17 17 16 16 16 16 16 16 16 16 16 16 16 16 16 16 16 16 16 15 15 15
22 22 22 22 22 22 21 21 20 20 20 20 20 19 19 19 19 19 19 18 18 18 18 17 17 17 17 17 17 16 16 16 16 16 16 16 16 16 16 16 16 15 15 15 15 15 15 15 15
22 21 21 21 21 21 21 20 19 20 20 19 19 19 19 19 19 19 19 19 18 18 18 18 17 17 17 17 16 16 16 16 16 16 16 16 16 16 16 15 15 15 15 15 15 15 15 15 15
21 20 19 20 21 21 20 19 19 20 20 19 19 19 19 19 19 19 19 19 18 18 18 18 17 17 17 17 16 16 16 16 16 16 16 16 15 15 15 15 15 15 15 15 15 15 15 15 15
19 19 19 20 21 21 20 19 19 20 20 19 19 19 19 19 19 19 19 19 18 18 18 18 17 17 17 17 16 16 16 16 16 16 15 15 15 15 15 15 15 15 15 15 14 14 14 14 14
19 19 19 19 20 20 19 19 19 20 19 19 19 19 19 19 19 19 19 19 18 18 18 18 17 17 17 17 16 16 16 16 16 15 15 15 15 15 15 15 15 15 15 14 14 14 14 14 14
20 20 19 20 21 20 19 19 19 19 19 18 18 19 19 19 19 19 19 18 18 18 18 18 17 17 17 17 16 16 16 16 15 15 15 15 15 15 15 15 15 14 14 14 14 14 14 14 14
21 20 19 20 20 20 18 18 18 18 18 19 18 18 18 18 19 19 18 18 18 18 18 17 17 17 17 17 16 16 16 16 15 15 15 15 15 15 15 15 15 14 14 14 14 14 14 13 13
20 20 20 20 20 20 19 18 18 18 19 19 18 18 18 18 18 18 18 18 18 18 17 17 17 17 17 16 16 16 15 15 15 15 15 15 15 15 15 15 14 14 14 14 14 14 14 13 13
20 21 21 20 19 18 19 17 17 17 17 18 18 18 18 18 18 18 18 18 18 17 17 17 17 17 17 16 16 16 16 15 15 15 15 15 15 15 14 14 14 14 14 14 14 14 14 13 13
21 21 21 20 19 18 18 17 17 17 17 17 17 18 18 18 18 18 18 18 18 17 17 17 17 17 16 16 16 16 16 15 15 15 15 15 14 14 14 14 14 14 14 14 14 13 13 13 13
21 20 19 17 17 17 18 17 16 16 17 17 17 18 18 18 18 18 18 18 17 17 17 17 17 16 16 16 16 16 15 15 15 15 15 14 14 14 14 14 14 14 14 14 13 13 13 13 13
20 17 17 17 16 16 17 17 17 18 18 18 18 18 18 18 18 18 18 17 17 17 17 16 16 16 16 16 15 15 15 15 15 15 14 14 14 14 14 14 14 14 14 13 13 13 13 13 13
19 17 16 17 16 16 17 17 17 18 18 19 18 18 18 18 18 18 18 17 17 17 17 16 16 16 16 15 15 15 15 15 14 14 14 14 14 14 14 14 14 13 13 13 13 13 13 13 13
19 17 17 16 16 16 16 17 18 18 17 17 17 17 17 17 17 18 17 17 17 17 16 16 16 16 15 15 15 15 15 14 14 14 14 14 14 14 13 13 13 13 13 13 13 13 13 12 12
19 18 15 16 16 16 16 16 16 17 17 17 16 16 17 17 17 17 17 17 17 17 16 16 16 16 15 15 15 15 14 14 14 14 14 14 13 13 13 13 13 13 13 13 13 12 12 12 12
18 18 16 15 15 15 15 16 17 17 17 16 16 17 17 17 17 17 17 17 17 17 16 16 16 16 15 15 15 14 14 14 14 14 14 13 13 13 13 13 13 13 13 12 12 12 12 12 12
18 17 16 16 15 15 14 15 17 16 17 16 16 16 17 17 17 17 17 17 16 16 16 16 16 15 15 15 15 14 14 14 14 14 13 13 13 13 13 13 13 12 12 12 12 12 12 12 12
Wind_Speed
3 1 3 3 5 5 2 1 1 3 3 4 8 10 8 6 4 5 3 7 8 6 6 8 9 10 11 11 11 11 11 11 11 11 11 11 11 11 11 11 11 11 11 11 11 11 10 11 11
0 1 3 4 5 3 1 0 4 4 6 7 8 8 7 6 5 7 4 7 9 8 7 9 10 10 11 11 11 11 11 11 11 11 11 11 10 10 10 10 10 10 10 10 10 10 9 9 10
0 1 3 4 3 4 4 2 5 5 5 5 5 6 5 5 5 4 6 10 9 7 8 10 10 10 11 11 11 11 11 11 11 11 10 10 10 10 10 10 10 10 10 10 10 9 9 9 9
2 4 4 5 3 2 5 4 4 5 5 6 7 6 4 3 4 6 9 10 9 7 8 10 11 11 11 11 11 11 11 11 11 10 10 10 10 10 10 9 9 9 9 9 8 8 8 8 8
4 4 5 3 2 0 3 4 4 5 4 5 7 6 3 3 7 10 10 10 9 6 7 9 11 11 11 10 10 11 11 10 10 10 10 10 10 10 10 9 9 9 8 8 8 8 8 8 8
4 4 4 2 2 1 1 4 6 6 6 6 7 6 3 2 7 9 9 9 9 8 6 8 10 10 10 10 10 10 10 10 10 9 9 9 9 9 9 9 9 8 8 8 7 7 7 7 8
4 4 3 4 3 2 3 4 6 5 5 4 6 6 4 3 5 7 8 8 8 7 6 5 6 8 9 9 9 10 9 9 9 9 9 9 9 8 8 9 8 8 8 7 7 7 7 7 8
5 4 2 2 4 2 3 4 5 6 4 5 5 8 6 6 6 7 7 7 7 6 5 4 5 6 6 7 9 9 9 8 8 9 8 8 8 7 7 7 7 7 7 7 6 6 6 7 8
4 4 2 3 4 3 3 5 3 4 6 4 4 5 8 10 8 8 7 5 5 5 4 4 4 4 5 5 6 7 7 7 7 6 7 6 5 5 5 5 6 6 6 6 6 5 6 7 8
4 3 3 3 5 4 3 5 4 4 6 5 7 7 10 10 9 9 7 6 5 5 5 4 4 4 4 4 5 4 4 4 5 4 5 5 4 4 4 5 5 6 6 5 5 6 6 6 6
4 5 3 3 4 5 4 3 3 7 4 6 11 13 11 10 9 8 7 6 6 6 6 5 5 4 4 3 4 3 3 3 4 4 5 5 4 4 4 4 4 5 6 5 5 5 5 5 5
3 2 4 4 4 4 3 3 4 4 5 8 13 15 12 11 10 9 8 6 5 6 6 5 5 4 4 4 3 3 3 3 3 3 5 5 3 2 2 2 3 3 4 4 4 4 5 6 6
2 2 3 4 6 5 5 3 4 2 4 9 11 12 11 10 8 7 7 6 6 6 6 5 5 5 4 3 2 3 3 3 3 4 4 5 3 2 2 2 3 3 4 4 3 4 5 5 5
4 3 3 4 4 3 5 2 3 3 7 10 10 10 11 10 9 7 6 6 6 6 5 5 5 5 5 3 2 3 3 3 4 4 5 6 5 4 2 2 3 3 4 4 4 5 4 4 4
4 3 1 2 3 3 5 1 4 6 8 10 10 10 10 9 8 8 8 8 7 6 6 6 6 5 5 4 3 4 4 4 4 4 5 6 6 5 4 3 2 3 5 5 5 6 5 4 4
3 3 1 4 3 3 5 5 6 6 9 9 9 8 8 7 8 8 8 7 6 6 5 5 6 6 5 4 3 3 4 4 4 5 5 6 6 6 5 3 3 4 6 5 4 4 4 4 4
1 3 4 3 4 4 5 5 6 6 9 9 9 8 8 6 6 7 8 8 7 7 7 5 5 6 5 4 4 3 4 3 4 5 4 5 6 7 6 3 3 5 4 3 4 4 4 4 3
5 4 4 5 4 5 5 6 5 6 9 9 8 7 7 8 7 7 7 7 7 6 6 6 5 5 5 4 3 3 3 2 3 3 4 5 5 6 6 4 4 5 4 4 4 4 3 3 3
5 4 4 5 4 4 5 6 7 7 6 7 8 8 7 7 5 6 6 7 6 6 5 5 5 4 4 3 3 2 2 1 2 2 3 5 5 5 5 4 3 4 4 3 4 4 4 3 2
4 3 3 2 4 5 5 6 6 7 9 10 10 10 8 6 4 5 6 6 6 6 5 5 5 5 5 4 3 3 3 2 1 1 2 3 4 4 5 4 3 3 4 4 3 3 3 1 2
5 5 5 4 2 2 3 3 5 4 5 6 8 9 9 9 8 7 7 6 6 6 6 6 6 5 5 5 4 3 3 3 2 1 1 1 3 3 4 4 3 3 3 3 3 3 4 2 0
5 6 7 5 3 4 4 3 6 4 3 5 7 7 8 8 8 7 7 6 6 6 6 6 5 5 5 6 6 6 4 3 3 2 1 1 2 3 4 4 4 3 3 3 2 2 2 3 1
6 4 4 4 4 2 2 3 6 2 4 7 8 9 9 9 10 9 8 7 6 5 5 5 5 5 5 5 7 6 4 3 2 2 2 1 1 2 3 4 4 3 2 2 2 2 2 2 3
2 2 3 3 3 2 4 4 6 5 8 8 9 10 10 10 9 9 8 6 5 4 4 4 5 4 4 5 5 6 6 5 4 3 2 1 1 1 2 4 3 3 2 2 2 2 3 2 2
3 5 2 2 2 5 3 3 6 5 6 9 11 11 10 9 9 9 8 7 6 6 5 5 5 4 4 5 5 6 6 6 6 4 3 2 1 1 2 2 3 2 2 2 2 2 2 2 2
3 8 6 5 4 4 2 3 5 4 2 4 6 8 8 8 9 9 9 8 8 8 7 6 6 5 5 5 6 6 6 5 4 4 4 3 2 2 2 2 3 3 2 2 2 2 1 2 2
3 4 7 6 2 1 3 3 4 2 3 3 4 5 6 7 8 8 8 8 7 8 8 7 7 5 5 6 6 6 6 5 5 4 3 2 2 2 2 2 2 2 2 2 3 2 2 2 1
4 5 5 4 4 3 4 3 4 3 3 2 4 6 6 6 6 6 6 7 7 7 7 7 6 6 5 5 6 5 5 6 5 4 4 3 3 2 2 2 2 2 2 2 2 2 2 2 1
1 2 3 4 5 5 3 5 4 7 6 5 5 6 6 6 6 6 5 6 6 6 6 6 5 5 4 4 4 5 5 5 5 5 5 4 3 3 3 2 2 2 2 2 2 2 2 2 1
3 4 5 4 3 4 4 6 5 4 4 4 4 4 5 5 4 4 4 4 4 5 5 5 5 5 5 5 4 4 4 5 5 5 5 4 4 3 3 3 2 2 2 2 3 3 3 3 2
Wind_Direction
262 88 93 66 58 57 59 349 141 94 64 62 75 84 82 67 89 129 177 142 132 134 125 108 101 98 96 95 93 93 91 90 94 95 96 95 94 94 95 96 96 94 92 92 90 90 89 88 87
213 107 74 65 83 87 19 171 110 110 134 120 83 79 76 71 82 113 130 141 135 132 123 111 105 102 99 97 95 94 93 90 91 92 94 93 92 93 97 98 99 98 96 95 93 90 89 87 84
278 112 88 74 101 154 165 167 128 115 113 103 84 62 76 105 110 134 154 143 131 127 123 118 113 107 105 101 99 97 95 93 91 92 93 92 90 90 94 98 98 99 97 96 95 94 92 87 85
74 52 57 77 106 187 165 170 132 108 74 72 98 71 60 80 129 142 142 134 127 126 126 123 118 113 110 107 104 101 98 95 93 94 95 93 93 93 92 95 95 96 96 97 96 95 92 88 85
67 76 67 73 100 202 158 146 130 112 93 86 96 94 65 32 113 129 134 132 130 129 127 127 121 116 112 111 107 103 101 99 98 97 96 95 94 93 92 95 96 97 99 98 96 95 94 93 86
60 72 92 133 129 112 87 113 104 100 110 104 100 105 99 108 120 131 132 131 135 136 128 129 128 123 119 114 111 108 105 102 101 101 97 96 96 95 97 101 101 99 97 93 92 91 91 89 85
110 99 139 153 138 141 159 115 108 116 123 123 123 107 124 137 135 130 129 128 128 130 127 120 128 127 123 119 117 115 109 105 104 105 100 96 98 98 102 106 105 102 100 94 87 83 82 80 79
129 107 103 138 139 167 159 123 124 122 112 118 116 130 155 180 148 118 117 122 126 130 129 130 123 119 118 120 119 118 112 108 107 108 104 99 98 98 102 110 108 106 101 96 89 83 83 82 80
100 86 145 182 158 173 143 111 99 90 104 88 91 133 153 153 132 117 112 108 128 137 142 143 134 129 130 127 122 119 115 109 103 104 104 96 86 83 86 102 107 107 103 95 87 83 87 87 82
96 134 202 190 165 155 121 116 122 94 92 86 82 97 130 137 132 132 135 140 144 148 156 157 153 157 148 135 115 110 106 99 96 98 99 94 87 81 79 81 94 98 98 90 79 80 87 82 77
135 168 182 142 144 123 110 98 96 120 124 156 145 145 148 141 142 147 155 158 160 157 152 156 157 148 133 121 121 109 96 95 103 105 105 97 84 74 72 69 70 74 80 75 69 66 75 83 80
135 178 157 150 136 116 129 119 97 122 182 170 156 154 153 151 158 165 164 161 156 145 145 146 143 134 128 119 114 111 99 94 93 109 115 108 90 72 65 69 73 69 74 74 68 73 78 80 81
147 146 137 135 119 128 119 119 126 145 146 145 144 149 154 159 166 173 165 156 151 146 143 146 139 141 131 119 115 101 94 96 99 100 115 119 106 90 71 64 73 84 89 90 82 80 77 76 77
172 142 137 150 146 161 136 143 123 182 146 147 153 160 167 169 170 162 153 147 147 151 148 142 139 137 124 126 124 115 103 96 94 101 113 118 112 101 95 82 76 80 89 88 90 90 86 80 76
131 124 113 198 159 182 136 156 206 186 156 159 166 173 170 174 168 168 170 162 161 158 148 141 143 131 125 126 125 114 104 98 95 97 103 105 105 104 100 93 76 79 92 92 84 79 80 79 71
91 103 197 256 196 197 145 213 232 186 165 172 175 178 175 176 175 177 172 163 161 152 144 147 143 133 132 134 124 112 104 98 97 103 106 105 105 105 96 89 83 95 97 91 86 81 80 70 66
90 180 210 251 210 184 162 211 228 193 171 177 180 179 177 172 175 179 174 166 166 161 152 151 141 141 141 134 114 107 100 94 88 92 102 111 107 105 99 96 93 97 93 88 93 81 91 84 70
204 198 204 214 218 175 183 213 218 200 176 180 180 178 178 178 181 173 165 164 158 154 153 156 149 143 138 124 104 90 77 75 79 88 100 104 106 108 102 99 98 97 92 86 93 95 79 83 79
186 187 213 227 212 179 206 221 224 207 191 185 180 181 185 189 179 162 157 157 149 143 146 157 150 149 136 129 126 122 119 118 96 96 103 102 106 113 111 105 103 100 106 111 113 109 91 76 86
211 208 227 251 209 187 205 234 233 205 200 192 184 183 185 180 169 166 158 156 159 160 156 154 157 158 156 156 151 148 143 142 140 106 95 107 112 118 120 119 120 114 111 103 108 114 112 108 93
227 202 201 204 243 201 167 282 262 242 207 189 184 180 176 172 175 176 165 163 160 164 167 167 165 164 160 147 125 104 78 61 54 70 89 121 122 123 124 123 119 122 126 134 141 138 137 147 8
233 221 195 182 163 236 190 242 272 232 195 194 189 183 183 179 173 170 160 159 165 176 170 167 170 168 163 148 141 143 148 160 195 183 170 140 115 125 131 128 125 126 130 140 158 148 144 141 155
228 217 195 191 176 239 243 189 275 226 206 214 199 188 187 183 176 174 174 173 170 170 166 163 164 168 167 158 155 155 155 171 167 144 130 120 102 121 130 132 129 129 133 142 135 131 137 147 156
207 59 45 58 95 247 235 189 263 228 206 204 201 194 190 183 179 177 178 168 159 155 155 160 158 171 167 161 163 165 162 158 147 155 162 159 134 126 129 133 132 138 138 147 147 138 139 146 143
100 98 47 352 353 248 243 191 245 244 211 197 197 195 191 180 178 176 174 171 168 166 170 167 166 175 172 167 171 172 168 164 165 172 176 170 160 178 192 148 144 147 151 151 142 137 144 148 146
184 146 161 197 219 267 305 222 255 269 221 180 184 184 181 175 179 181 184 184 181 180 179 172 176 184 180 175 178 177 171 167 173 177 173 177 186 194 188 162 152 147 138 134 128 130 153 143 154
157 174 175 154 189 244 272 276 307 19 61 101 129 143 163 174 177 181 184 186 183 182 183 181 180 182 185 184 181 180 177 174 178 178 170 168 172 183 172 158 143 140 133 126 127 130 144 132 138
158 154 106 131 174 232 271 252 233 219 195 163 150 160 172 176 177 180 186 188 186 184 183 180 178 182 185 182 182 181 183 181 176 165 162 165 175 168 155 151 141 139 138 136 130 133 141 123 135
91 113 124 144 166 169 231 264 232 198 185 180 190 184 181 183 183 182 184 188 183 179 180 181 181 181 181 179 179 176 181 179 169 170 175 172 168 155 154 158 158 160 158 149 143 156 150 142 155
176 178 148 162 225 178 183 259 283 191 174 169 180 174 170 171 167 161 164 170 176 178 182 183 184 184 189 184 178 179 173 164 166 174 179 169 169 168 166 162 154 155 156 159 160 175 173 169 175
Height
1502 1502 1502 1503 1506 1516 1518 1512 1506 1504 1504 1505 1504 1505 1509 1512 1516 1523 1520 1519 1519 1519 1519 1518 1518 1517 1516 1516 1516 1515 1515 1515 1515 1515 1515 1515 1515 1515 1515 1516 1516 1516 1516 1517 1517 1517 1518 1518 1518
1502 1502 1503 1503 1513 1525 1521 1510 1507 1504 1505 1505 1506 1508 1510 1514 1515 1517 1518 1520 1520 1520 1520 1519 1519 1518 1518 1517 1517 1517 1516 1516 1516 1516 1516 1516 1516 1516 1516 1516 1517 1517 1517 1517 1518 1518 1519 1519 1519
1501 1502 1503 1506 1515 1522 1518 1508 1505 1504 1504 1504 1508 1510 1513 1516 1517 1518 1519 1520 1521 1521 1521 1520 1520 1520 1519 1519 1518 1518 1518 1517 1517 1517 1517 1517 1517 1517 1517 1517 1517 1518 1518 1518 1519 1519 1519 1520 1520
1502 1503 1504 1511 1515 1511 1508 1506 1503 1504 1505 1506 1508 1513 1516 1518 1518 1519 1520 1521 1522 1522 1522 1522 1521 1521 1521 1520 1520 1519 1519 1519 1518 1518 1518 1518 1517 1517 1518 1518 1518 1518 1519 1519 1519 1520 1520 1520 1521
1501 1502 1509 1516 1513 1508 1504 1503 1503 1504 1506 1508 1509 1514 1518 1519 1519 1519 1520 1522 1522 1522 1523 1523 1523 1522 1522 1521 1521 1521 1520 1520 1519 1519 1519 1519 1518 1518 1518 1518 1519 1519 1520 1520 1520 1520 1521 1521 1522
1502 1504 1517 1521 1514 1507 1505 1503 1504 1506 1508 1510 1511 1515 1519 1520 1520 1521 1522 1523 1523 1523 1524 1524 1524 1523 1523 1523 1522 1522 1522 1521 1521 1520 1520 1520 1519 1519 1519 1520 1520 1520 1521 1521 1521 1521 1521 1522 1522
1503 1508 1515 1515 1514 1510 1506 1504 1505 1507 1508 1510 1511 1516 1519 1521 1521 1522 1523 1524 1524 1525 1525 1525 1525 1524 1524 1524 1524 1523 1523 1523 1522 1521 1521 1521 1520 1520 1520 1521 1521 1521 1521 1522 1522 1522 1522 1523 1523
1501 1507 1513 1514 1513 1510 1505 1505 1506 1507 1509 1511 1512 1514 1518 1521 1522 1523 1524 1524 1525 1525 1526 1525 1525 1525 1525 1525 1525 1524 1524 1523 1523 1523 1522 1522 1522 1521 1521 1522 1522 1522 1522 1523 1523 1523 1523 1524 1524
1501 1510 1516 1512 1511 1508 1504 1505 1508 1508 1509 1511 1512 1513 1516 1520 1522 1523 1524 1525 1525 1526 1526 1526 1526 1526 1526 1526 1525 1525 1525 1524 1524 1524 1523 1523 1523 1522 1522 1523 1523 1523 1523 1523 1524 1524 1524 1525 1525
1501 1512 1509 1504 1504 1505 1504 1505 1508 1510 1510 1512 1513 1515 1517 1519 1521 1522 1523 1524 1525 1526 1526 1527 1527 1527 1527 1526 1526 1526 1526 1525 1525 1525 1524 1524 1524 1524 1523 1523 1524 1524 1524 1524 1525 1525 1525 1525 1526
1500 1506 1503 1503 1502 1503 1505 1506 1507 1509 1512 1512 1513 1515 1517 1519 1521 1522 1523 1524 1525 1526 1526 1527 1527 1527 1527 1527 1527 1526 1526 1526 1526 1525 1525 1525 1525 1524 1524 1524 1524 1525 1525 1525 1525 1525 1526 1526 1526
1500 1501 1501 1502 1502 1503 1505 1506 1508 1509 1511 1512 1512 1514 1516 1518 1520 1521 1523 1524 1525 1526 1526 1527 1527 1527 1528 1528 1527 1527 1527 1527 1526 1526 1526 1525 1525 1525 1525 1525 1525 1525 1525 1525 1526 1526 1526 1526 1527
1500 1501 1501 1502 1502 1503 1504 1506 1508 1510 1510 1512 1513 1515 1516 1518 1520 1521 1523 1524 1525 1526 1526 1527 1527 1527 1528 1528 1527 1527 1527 1527 1527 1527 1526 1526 1526 1526 1526 1525 1525 1525 1526 1526 1526 1526 1526 1527 1527
1499 1500 1502 1502 1503 1504 1505 1507 1509 1510 1511 1512 1513 1515 1516 1517 1519 1521 1522 1523 1524 1525 1526 1527 1527 1528 1528 1528 1527 1527 1527 1527 1527 1527 1527 1527 1526 1526 1526 1526 1526 1526 1526 1526 1526 1526 1526 1526 1527
1498 1501 1503 1503 1503 1504 1506 1510 1509 1509 1510 1512 1513 1514 1515 1517 1518 1519 1520 1522 1523 1524 1525 1526 1527 1527 1527 1528 1528 1528 1528 1528 1528 1527 1527 1527 1527 1527 1527 1526 1526 1526 1526 1526 1526 1526 1526 1526 1527
1500 1506 1511 1505 1503 1504 1509 1516 1508 1508 1509 1511 1512 1513 1514 1516 1517 1518 1520 1521 1523 1524 1525 1526 1526 1527 1527 1528 1528 1528 1528 1528 1528 1528 1528 1528 1527 1527 1527 1527 1526 1526 1526 1526 1526 1525 1526 1526 1526
1507 1513 1513 1507 1501 1503 1507 1511 1506 1506 1507 1509 1510 1512 1513 1514 1516 1517 1519 1520 1522 1523 1524 1525 1526 1527 1527 1528 1528 1528 1528 1528 1528 1528 1528 1528 1528 1527 1527 1527 1526 1526 1526 1526 1525 1525 1525 1526 1526
1512 1511 1510 1509 1501 1502 1506 1507 1504 1504 1505 1506 1508 1510 1511 1512 1514 1516 1517 1519 1520 1522 1523 1524 1525 1526 1526 1527 1527 1528 1528 1528 1528 1528 1528 1528 1527 1527 1527 1527 1526 1526 1526 1526 1526 1525 1526 1526 1526
1500 1504 1507 1504 1498 1502 1505 1506 1503 1502 1503 1504 1506 1508 1509 1511 1513 1514 1516 1517 1519 1520 1521 1522 1523 1524 1525 1526 1526 1527 1527 1527 1527 1527 1527 1527 1527 1527 1527 1526 1526 1526 1526 1526 1526 1526 1525 1526 1526
1497 1503 1505 1501 1497 1501 1505 1505 1501 1500 1501 1501 1503 1505 1507 1509 1511 1512 1514 1516 1517 1518 1519 1520 1521 1523 1524 1524 1525 1526 1526 1527 1527 1527 1527 1527 1527 1527 1526 1526 1526 1526 1525 1525 1525 1525 1525 1525 1526
1497 1500 1501 1502 1499 1499 1504 1508 1503 1500 1499 1500 1501 1502 1504 1506 1508 1510 1511 1513 1515 1516 1517 1519 1520 1521 1522 1523 1524 1525 1526 1526 1526 1526 1526 1526 1526 1526 1526 1526 1525 1525 1525 1525 1525 1525 1525 1525 1526
1499 1491 1493 1497 1505 1510 1506 1520 1506 1500 1499 1499 1499 1501 1502 1504 1505 1507 1509 1511 1512 1514 1515 1517 1518 1519 1520 1521 1522 1523 1523 1524 1524 1525 1525 1525 1526 1526 1525 1525 1525 1525 1524 1524 1524 1524 1524 1524 1525
1491 1486 1490 1494 1502 1509 1507 1516 1511 1500 1501 1498 1497 1498 1499 1501 1503 1505 1507 1509 1510 1512 1514 1515 1516 1517 1518 1519 1520 1521 1522 1523 1523 1524 1524 1524 1524 1524 1524 1524 1524 1524 1523 1523 1523 1523 1523 1524 1524
1484 1489 1493 1500 1507 1518 1509 1515 1513 1502 1496 1493 1494 1495 1496 1498 1501 1503 1505 1507 1509 1511 1512 1513 1514 1515 1516 1517 1518 1519 1520 1521 1521 1522 1522 1522 1522 1523 1523 1523 1523 1522 1522 1522 1522 1522 1522 1522 1523
1487 1502 1517 1519 1525 1521 1506 1510 1507 1491 1487 1487 1488 1491 1493 1496 1498 1501 1503 1505 1507 1508 1510 1511 1512 1513 1514 1515 1516 1517 1518 1519 1519 1520 1520 1520 1521 1521 1521 1521 1521 1521 1521 1521 1521 1521 1521 1521 1521
1488 1498 1517 1525 1526 1520 1507 1509 1500 1487 1484 1484 1486 1488 1491 1493 1496 1498 1500 1502 1504 1505 1507 1508 1509 1510 1512 1512 1514 1515 1516 1516 1517 1518 1518 1518 1519 1519 1519 1519 1519 1519 1519 1519 1519 1519 1519 1519 1520
1489 1495 1496 1510 1513 1519 1513 1504 1494 1486 1486 1486 1486 1488 1490 1492 1494 1496 1498 1500 1501 1503 1504 1506 1507 1508 1509 1510 1511 1512 1513 1514 1514 1515 1516 1516 1517 1517 1517 1518 1518 1518 1518 1518 1518 1518 1518 1518 1518
1482 1488 1501 1509 1519 1524 1514 1508 1503 1492 1490 1488 1487 1488 1489 1491 1493 1494 1496 1498 1499 1500 1502 1504 1505 1505 1506 1507 1508 1509 1510 1511 1512 1513 1513 1514 1515 1515 1515 1515 1516 1516 1516 1516 1516 1516 1516 1516 1516
1487 1490 1495 1504 1508 1519 1522 1513 1488 1487 1486 1487 1486 1487 1488 1490 1491 1492 1493 1495 1497 1498 1500 1501 1502 1503 1504 1505 1506 1507 1507 1508 1509 1510 1511 1511 1512 1512 1513 1513 1513 1513 1513 1513 1513 1513 1514 1514 1514
1483 1487 1494 1506 1508 1510 1516 1510 1483 1483 1483 1484 1485 1486 1488 1489 1490 1491 1492 1493 1495 1496 1497 1498 1499 1500 1501 1502 1503 1504 1505 1505 1506 1507 1508 1509 1510 1510 1510 1511 1511 1511 1511 1511 1511 1511 1511 1512 1512